#timestamp,LO_Frequency,Hit,StdDev 
1695848415.8,286047000.7,N
1695848435.6,286046998.5,N
1695848455.5,286046998.7,N
1695848475.3,286046999.0,N
1695848495.2,286046999.5,N
1695848515.9,286046999.6,N
1695848535.7,286046999.6,N
1695848555.6,286046996.6,Y
1695848575.4,286046998.5,P
1695848595.2,286047001.0,N
1695848615.1,286047000.7,N
1695848616.0,286047000.7,N
1695848635.8,286047001.0,N
1695848655.7,286046999.3,N
1695848675.5,286047001.2,N
1695848695.3,286047000.9,N
1695848715.2,286047000.8,N
1695848735.0,286046998.5,N
1695848735.9,286046998.5,N
1695848755.7,286047000.8,N
1695848775.6,286046998.5,N
1695848795.4,286047001.1,N
1695848815.3,286047000.8,N
1695848835.1,286046998.1,N
1695848836.0,286046998.1,N
1695848855.8,286047001.0,N
1695848875.7,286047000.0,N
1695848895.5,286047002.3,N
1695848915.4,286047000.1,N
1695848935.2,286047002.4,N
1695848955.0,286047000.6,N
1695848955.9,286047000.6,N
1695848975.8,286046999.8,N
1695848995.6,286047000.8,N
1695849015.4,286046999.9,N
1695849035.3,286047000.1,N
1695849055.1,286046999.9,N
1695849075.9,286047000.9,N
1695849095.7,286047000.4,N
1695849115.5,286047000.3,N
1695849135.4,286046999.8,N
1695849155.2,286047002.4,N
1695849175.0,286047001.9,N
1695849175.9,286047001.9,N
1695849195.8,286047002.2,N
1695849215.6,286047002.6,N
1695849235.5,286047002.0,N
1695849255.3,286047001.9,N
1695849275.1,286047002.3,N
1695849295.9,286047002.0,N
1695849315.7,286047002.1,N
1695849335.5,286047002.5,N
1695849355.4,286047002.1,N
1695849375.2,286047000.1,N
1695849395.1,286047001.5,N
1695849396.0,286047001.5,N
1695849415.8,286047001.6,N
1695849435.7,286047002.6,N
1695849455.5,286047002.0,N
1695849475.3,286047001.7,N
1695849495.2,286047001.8,N
1695849515.0,286047001.7,N
1695849515.9,286047001.7,N
1695849535.7,286047001.8,N
1695849555.6,286047001.5,N
1695849575.4,286047002.5,Y
1695849595.3,286046998.2,P
1695849615.1,286046998.9,N
1695849635.8,286047001.0,N
1695849655.7,286046998.1,N
1695849675.5,286046999.0,N
1695849695.4,286047011.9,Y
1695849715.2,286047001.2,P
1695849735.0,286046999.9,N
1695849735.9,286046999.9,N
1695849755.8,286047002.6,Y
1695849775.6,286047002.8,P
1695849795.5,286047000.0,N
1695849815.3,286046999.7,N
1695849835.1,286047002.8,N
1695849855.9,286047000.4,N
1695849875.7,286047001.0,N
1695849895.5,286047000.1,N
1695849915.4,286047002.8,N
1695849935.2,286047002.7,N
1695849955.1,286047001.0,N
1695849956.0,286047001.0,N
1695849975.8,286046999.8,N
1695849995.6,286047000.6,N
1695850015.5,286047002.7,N
1695850035.3,286046999.8,N
1695850055.2,286047001.4,N
1695850075.9,286047002.3,N
1695850095.7,286047001.3,N
1695850115.6,286047002.2,N
1695850135.4,286046999.7,N
1695850155.2,286047002.5,N
1695850175.1,286047001.5,N
1695850176.0,286047001.5,N
1695850195.8,286047002.4,N
1695850215.7,286047001.6,N
1695850235.5,286047000.1,N
1695850255.3,286046998.1,N
1695850275.2,286046998.5,N
1695850295.9,286047000.9,N
1695850315.7,286047000.4,N
1695850335.6,286047000.5,N
1695850355.4,286047000.3,N
1695850375.3,286047000.6,N
1695850395.1,286047000.3,N
1695850415.8,286047000.3,N
1695850435.7,286047000.6,N
1695850455.5,286046999.0,N
1695850475.4,286046997.2,N
1695850495.2,286046996.8,N
1695850515.0,286046997.4,N
1695850515.9,286046997.4,N
1695850535.8,286046997.3,N
1695850555.6,286046996.5,N
1695850575.5,286046996.8,N
1695850595.3,286046996.9,N
1695850615.1,286046996.8,N
1695850635.9,286046996.6,N
1695850655.7,286046997.2,N
1695850675.5,286046994.9,N
1695850695.4,286046996.3,N
1695850715.2,286046995.2,N
1695850735.1,286046993.6,Y
1695850736.0,286046993.6,P
1695850755.8,286046996.1,N
1695850775.6,286046996.3,N
1695850795.5,286046994.2,Y
1695850815.3,286046998.0,P
1695850835.2,286046997.3,N
1695850855.9,286046996.6,P
1695850875.7,286046997.3,Y
1695850895.6,286047011.9,P
1695850915.4,286046998.9,N
1695850935.2,286046998.6,N
1695850955.1,286046999.4,N
1695850956.0,286046999.4,N
1695850975.8,286046999.0,N
1695850995.7,286046999.3,N
1695851015.5,286046999.2,N
1695851035.3,286046999.6,N
1695851055.2,286046999.1,N
1695851075.0,286046997.0,N
1695851075.9,286046997.0,N
1695851095.8,286046997.0,N
1695851115.6,286046995.4,N
1695851135.4,286046995.0,N
1695851155.3,286046995.5,N
1695851175.1,286046997.1,N
1695851195.8,286046997.9,N
1695851215.7,286046997.3,N
1695851235.5,286046995.2,N
1695851255.4,286046994.9,N
1695851275.2,286046997.6,N
1695851295.0,286046995.5,N
1695851295.9,286046995.5,N
1695851315.8,286046995.7,N
1695851335.6,286046995.1,N
1695851355.5,286046995.0,N
1695851375.3,286046997.4,N
1695851395.1,286046995.0,N
1695851415.9,286046995.3,N
1695851435.7,286046995.2,N
1695851455.5,286046997.2,N
1695851475.4,286046997.6,N
1695851495.2,286046997.3,N
1695851515.1,286046997.6,N
1695851516.0,286046997.6,N
1695851535.8,286046997.9,N
1695851555.6,286046995.2,Y
1695851575.5,286046998.4,P
1695851595.3,286046999.3,N
1695851615.2,286046997.4,N
1695851635.9,286046999.1,N
1695851655.7,286046999.1,N
1695851675.6,286046999.5,N
1695851695.4,286046999.2,N
1695851715.2,286046996.7,Y
1695851735.1,286046998.6,P
1695851736.0,286046998.6,P
1695851755.8,286046998.3,P
1695851775.7,286046996.5,Y
1695851795.5,286046998.1,P
1695851815.3,286046998.4,P
1695851835.2,286047001.2,P
1695851855.0,286047000.1,N
1695851855.9,286047000.1,N
1695851875.8,286047000.3,N
1695851895.6,286047000.2,N
1695851915.4,286046999.8,N
1695851935.3,286047002.2,N
1695851955.1,286047001.9,N
1695851975.8,286047002.1,N
1695851995.7,286047001.4,N
